"startDT [UTC]","vpos","CH4 [ppm]","stdev(CH4) [ppm]","CO2 [ppm]","stdev(CO2) [ppm]","H2O [ppm]","stdev(H2O)","p_LGR [torr]","T_LGR [C]","mt1_LGR [us]","mt2_LGR [us]","T_ECpre [C]","T_EC1 [C]","T_EC2 [C]","p_inlet [hPa]","p_in [hPa]","p_out [hPa]","T_inlet [C]","RH_inlet [%]","dwpt_inlet [C]","T_vent [C]","RH_vent [%]","dwpt_vent [C]","flow_vent [l min-1]","flow_inlet [l min-1]","dwpt_sample [C]","T_room [C]"
2013-01-13 00:00:00,0.0,1.9402,0.0008,406.17,0.25,-1.0,0.0,138.16,26.27,24.61,36.29,0.04,-272.75,-272.75,-43,545,-936,20.4,0.7,-40.8,20.6,0.8,-40.1,5.73,2.39,-36.4,25.8
2013-01-13 00:01:00,0.0,1.9402,0.0008,406.29,0.27,-1.0,0.0,138.16,26.27,24.61,36.29,0.04,-272.75,-272.75,-43,545,-936,20.5,0.7,-40.8,20.6,0.8,-40.1,5.73,2.42,-36.4,25.7
2013-01-13 00:02:00,0.0,1.9401,0.0010,406.20,0.28,-1.0,0.0,138.16,26.27,24.61,36.29,0.04,-272.75,-272.75,-43,545,-936,20.4,0.7,-40.8,20.6,0.8,-40.1,5.73,2.46,-36.4,25.7
2013-01-13 00:03:00,0.0,1.9413,0.0011,406.24,0.27,-1.0,0.0,138.16,26.27,24.61,36.29,0.04,-272.75,-272.75,-42,545,-936,20.4,0.7,-40.8,20.6,0.8,-40.0,5.73,2.47,-36.3,25.7
2013-01-13 00:04:00,0.0,1.9419,0.0008,406.35,0.31,-1.0,0.0,138.16,26.27,24.61,36.29,0.04,-272.75,-272.75,-43,545,-936,20.4,0.7,-41.1,20.6,0.7,-40.3,5.73,2.45,-36.4,25.7
2013-01-13 00:05:00,0.0,1.9417,0.0008,406.16,0.27,-1.0,0.0,138.16,26.27,24.61,36.29,0.04,-272.75,-272.75,-43,545,-936,20.4,0.7,-41.1,20.6,0.7,-40.3,5.73,2.40,-36.3,25.7
2013-01-13 00:06:00,0.0,1.9421,0.0010,406.33,0.27,-1.0,0.0,138.16,26.27,24.61,36.29,0.04,-272.75,-272.75,-43,545,-936,20.4,0.7,-41.2,20.6,0.7,-40.5,5.73,2.38,-36.3,25.8
2013-01-13 00:07:00,0.0,1.9422,0.0008,406.32,0.32,-1.0,0.0,138.16,26.27,24.61,36.29,0.04,-272.75,-272.75,-43,545,-936,20.4,0.7,-41.2,20.6,0.7,-40.4,5.73,2.40,-36.3,25.8
2013-01-13 00:08:00,0.0,1.9426,0.0011,406.38,0.32,-1.0,0.0,138.16,26.27,24.61,36.28,0.04,-272.75,-272.75,-43,545,-936,20.4,0.7,-41.3,20.6,0.7,-40.4,5.73,2.44,-36.3,25.7
2013-01-13 00:09:00,0.0,1.9426,0.0009,406.34,0.30,-1.0,0.0,138.16,26.27,24.61,36.29,0.04,-272.75,-272.75,-43,545,-936,20.5,0.7,-41.3,20.6,0.7,-40.6,5.73,2.47,-36.3,25.7
2013-01-13 00:10:00,0.0,1.9423,0.0009,406.28,0.25,-1.0,0.0,138.16,26.27,24.61,36.29,0.04,-272.75,-272.75,-43,545,-936,20.5,0.7,-41.3,20.6,0.7,-40.8,5.73,2.46,-36.3,25.8
2013-01-13 00:11:00,0.0,1.9420,0.0010,406.29,0.27,-1.0,0.0,138.16,26.26,24.61,36.29,0.04,-272.75,-272.75,-43,545,-936,20.5,0.7,-41.3,20.6,0.7,-40.8,5.73,2.43,-36.3,25.7
2013-01-13 00:12:00,0.0,1.9420,0.0011,406.28,0.22,-1.0,0.0,138.16,26.26,24.61,36.29,0.04,-272.75,-272.75,-43,545,-936,20.5,0.7,-41.3,20.6,0.7,-40.8,5.73,2.39,-36.3,25.7
2013-01-13 00:13:00,0.0,1.9423,0.0010,406.42,0.27,-1.0,0.0,138.16,26.27,24.61,36.29,0.04,-272.75,-272.75,-42,545,-936,20.4,0.7,-41.3,20.6,0.7,-40.8,5.73,2.38,-36.3,25.7
2013-01-13 00:14:00,0.0,1.9433,0.0010,406.34,0.27,-1.0,0.0,138.16,26.27,24.61,36.29,0.04,-272.75,-272.75,-43,545,-936,20.4,0.7,-41.2,20.6,0.7,-40.7,5.73,2.42,-36.3,25.8
2013-01-13 00:15:00,0.0,1.9435,0.0009,406.35,0.27,-1.0,0.0,138.16,26.27,24.61,36.29,0.04,-272.75,-272.75,-43,545,-936,20.4,0.7,-41.1,20.6,0.7,-40.6,5.73,2.46,-36.3,25.8
2013-01-13 00:16:00,0.0,1.9429,0.0009,406.32,0.28,-1.0,0.0,138.16,26.27,24.61,36.29,0.04,-272.75,-272.75,-43,545,-936,20.4,0.7,-41.2,20.6,0.7,-40.6,5.73,2.47,-36.3,25.8
2013-01-13 00:17:00,0.0,1.9429,0.0010,406.29,0.28,-1.0,0.0,138.16,26.27,24.61,36.29,0.04,-272.75,-272.75,-43,545,-936,20.4,0.7,-41.2,20.6,0.7,-40.7,5.73,2.45,-36.3,25.7
2013-01-13 00:18:00,0.0,1.9429,0.0009,406.50,0.34,-1.0,0.0,138.16,26.27,24.61,36.28,0.04,-272.75,-272.75,-43,545,-936,20.4,0.7,-41.2,20.6,0.7,-40.7,5.73,2.41,-36.3,25.7
2013-01-13 00:19:00,0.0,1.9427,0.0010,406.43,0.25,-1.0,0.0,138.16,26.27,24.61,36.30,0.04,-272.75,-272.75,-43,545,-936,20.5,0.7,-41.2,20.6,0.7,-40.8,5.73,2.38,-36.3,25.7
2013-01-13 00:20:00,0.0,1.9428,0.0008,406.35,0.26,-1.0,0.0,138.16,26.26,24.61,36.29,0.04,-272.75,-272.75,-43,545,-936,20.5,0.7,-41.3,20.6,0.7,-40.7,5.73,2.39,-36.3,25.7
2013-01-13 00:21:00,0.0,1.9422,0.0010,406.32,0.28,-1.0,0.0,138.16,26.26,24.61,36.30,0.04,-272.75,-272.75,-43,545,-936,20.5,0.7,-41.2,20.6,0.7,-40.6,5.73,2.44,-36.3,25.7
2013-01-13 00:22:00,0.0,1.9426,0.0009,406.49,0.32,-1.0,0.0,138.16,26.26,24.61,36.29,0.04,-272.75,-272.75,-42,545,-936,20.5,14.2,-13.9,20.6,13.4,-15.5,5.73,2.47,-36.3,25.7
2013-01-13 00:23:00,0.0,1.9428,0.0009,406.51,0.27,-1.0,0.0,138.16,26.26,24.61,36.29,0.04,-272.75,-272.75,-42,545,-936,20.4,15.3,-7.0,20.6,16.1,-6.3,5.73,2.47,-36.3,25.7
2013-01-13 00:24:00,0.0,1.9427,0.0009,406.46,0.30,-1.0,0.0,138.16,26.26,24.61,36.29,0.04,-272.75,-272.75,-43,545,-936,20.4,8.3,-14.7,20.6,8.7,-13.9,5.73,2.43,-36.3,25.7
2013-01-13 00:25:00,0.0,1.9427,0.0008,406.38,0.31,-1.0,0.0,138.16,26.26,24.61,36.30,0.04,-272.75,-272.75,-43,545,-936,20.4,4.6,-21.6,20.6,4.8,-20.9,5.73,2.39,-36.3,25.7
2013-01-13 00:26:00,0.0,1.9430,0.0009,406.39,0.34,-1.0,0.0,138.16,26.26,24.61,36.30,0.04,-272.75,-272.75,-42,545,-936,20.4,3.3,-25.2,20.6,3.4,-24.7,5.73,2.38,-36.3,25.8
2013-01-13 00:27:00,0.0,1.9432,0.0011,406.50,0.28,-1.0,0.0,138.16,26.26,24.61,36.30,0.04,-272.75,-272.75,-42,545,-936,20.4,2.7,-27.5,20.6,2.8,-26.9,5.73,2.41,-36.2,25.7
2013-01-13 00:28:00,0.0,1.9428,0.0010,406.49,0.27,-1.0,0.0,138.16,26.26,24.61,36.29,0.04,-272.75,-272.75,-42,545,-936,20.4,1.8,-31.7,20.6,2.0,-30.9,5.73,2.44,-36.2,25.8
2013-01-13 00:29:00,0.0,1.9435,0.0010,406.43,0.27,-1.0,0.0,138.16,26.26,24.61,36.29,0.04,-272.75,-272.75,-43,545,-936,20.4,1.0,-38.0,20.6,1.0,-37.0,5.73,2.47,-36.2,25.8
2013-01-13 00:30:00,0.0,1.9433,0.0012,406.45,0.30,-1.0,0.0,138.16,26.26,24.61,36.30,0.04,-272.75,-272.75,-43,545,-936,20.4,0.8,-40.1,20.6,0.8,-39.1,5.73,2.46,-36.1,25.8
2013-01-13 00:31:00,0.0,1.9437,0.0010,406.55,0.31,-1.0,0.0,138.16,26.26,24.61,36.28,0.04,-272.75,-272.75,-42,545,-936,20.4,0.7,-40.8,20.6,0.8,-39.8,5.73,2.42,-36.1,25.8
2013-01-13 00:32:00,0.0,1.9432,0.0008,406.59,0.30,-1.0,0.0,138.16,26.26,24.61,36.29,0.04,-272.75,-272.75,-42,545,-936,20.4,0.7,-41.1,20.6,0.8,-40.0,5.73,2.38,-36.0,25.8
2013-01-13 00:33:00,0.0,1.9438,0.0008,406.53,0.28,-1.0,0.0,138.16,26.26,24.61,36.29,0.04,-272.75,-272.75,-43,545,-936,20.4,0.7,-41.2,20.6,0.8,-40.2,5.73,2.38,-36.0,25.8
2013-01-13 00:34:00,0.0,1.9438,0.0009,406.51,0.26,-1.0,0.0,138.16,26.26,24.61,36.29,0.04,-272.75,-272.75,-43,545,-936,20.4,0.7,-41.1,20.6,0.7,-40.4,5.73,2.42,-35.9,25.8
2013-01-13 00:35:00,0.0,1.9437,0.0009,406.47,0.27,-1.0,0.0,138.16,26.26,24.61,36.29,0.04,-272.75,-272.75,-43,545,-936,20.4,0.7,-41.1,20.6,0.7,-40.4,5.73,2.46,-35.8,25.8
2013-01-13 00:36:00,0.0,1.9439,0.0009,406.50,0.28,-1.0,0.0,138.16,26.26,24.61,36.29,0.04,-272.75,-272.75,-42,545,-936,20.4,0.7,-41.2,20.6,0.7,-40.5,5.73,2.48,-35.7,25.8
2013-01-13 00:37:00,0.0,1.9434,0.0009,406.56,0.31,-1.0,0.0,138.16,26.26,24.61,36.28,0.04,-272.74,-272.75,-42,545,-936,20.4,0.7,-41.2,20.6,0.7,-40.5,5.73,2.45,-35.7,25.7
2013-01-13 00:38:00,0.0,1.9431,0.0011,406.49,0.34,-1.0,0.0,138.16,26.26,24.61,36.29,0.04,-272.75,-272.75,-43,545,-936,20.5,0.7,-41.3,20.6,0.7,-40.4,5.73,2.40,-35.6,25.8
2013-01-13 00:39:00,0.0,1.9416,0.0010,406.30,0.25,-1.0,0.0,138.16,26.26,24.61,36.29,0.04,-272.75,-272.75,-43,545,-936,20.5,0.7,-41.3,20.6,0.7,-40.4,5.73,2.38,-35.6,25.8
2013-01-13 00:40:00,0.0,1.9418,0.0009,406.22,0.32,-1.0,0.0,138.16,26.26,24.61,36.29,0.04,-272.75,-272.75,-43,545,-936,20.4,0.7,-41.1,20.6,0.7,-40.4,5.73,2.39,-35.5,25.8
2013-01-13 00:41:00,0.0,1.9428,0.0009,406.45,0.30,-1.0,0.0,138.16,26.26,24.61,36.29,0.04,-272.75,-272.75,-42,545,-936,20.4,0.7,-41.2,20.6,0.7,-40.4,5.73,2.44,-35.4,25.7
2013-01-13 00:42:00,0.0,1.9416,0.0010,406.32,0.32,-1.0,0.0,138.16,26.26,24.61,36.29,0.04,-272.75,-272.75,-42,545,-936,20.4,0.7,-41.2,20.6,0.7,-40.4,5.73,2.47,-35.4,25.7
2013-01-13 00:43:00,0.0,1.9413,0.0009,406.20,0.32,-1.0,0.0,138.16,26.26,24.61,36.30,0.04,-272.75,-272.75,-43,545,-936,20.4,0.7,-41.2,20.6,0.7,-40.4,5.73,2.47,-35.4,25.8
2013-01-13 00:44:00,0.0,1.9414,0.0010,406.28,0.28,-1.0,0.0,138.16,26.26,24.61,36.29,0.04,-272.75,-272.75,-43,545,-936,20.4,0.7,-41.2,20.6,0.7,-40.4,5.73,2.43,-35.3,25.7
2013-01-13 00:45:00,0.0,1.9418,0.0009,406.37,0.31,-1.0,0.0,138.16,26.26,24.61,36.29,0.04,-272.75,-272.75,-43,545,-935,20.4,0.7,-41.1,20.6,0.7,-40.4,5.73,2.40,-35.3,25.7
2013-01-13 00:46:00,0.0,1.9422,0.0010,406.41,0.26,-1.0,0.0,138.16,26.26,24.61,36.29,0.04,-272.75,-272.75,-42,545,-936,20.4,0.7,-41.1,20.6,0.7,-40.5,5.73,2.38,-35.2,25.7
2013-01-13 00:47:00,0.0,1.9433,0.0010,406.45,0.25,-1.0,0.0,138.16,26.26,24.61,36.29,0.04,-272.75,-272.75,-42,545,-936,20.4,0.7,-41.2,20.6,0.7,-40.4,5.73,2.41,-35.2,25.7
2013-01-13 00:48:00,0.0,1.9424,0.0012,406.40,0.28,-1.0,0.0,138.16,26.25,24.61,36.29,0.04,-272.75,-272.75,-43,545,-936,20.5,0.7,-41.2,20.6,0.7,-40.4,5.73,2.46,-35.2,25.7
2013-01-13 00:49:00,0.0,1.9416,0.0010,406.34,0.24,-1.0,0.0,138.16,26.25,24.61,36.29,0.04,-272.75,-272.75,-43,545,-936,20.5,0.7,-41.3,20.6,0.7,-40.3,5.73,2.48,-35.1,25.7
2013-01-13 00:50:00,0.0,1.9422,0.0011,406.34,0.26,-1.0,0.0,138.16,26.25,24.61,36.29,0.04,-272.75,-272.75,-43,545,-936,20.4,0.7,-41.3,20.6,0.7,-40.4,5.73,2.45,-35.1,25.7
2013-01-13 00:51:00,0.0,1.9427,0.0011,406.45,0.28,-1.0,0.0,138.16,26.25,24.61,36.29,0.04,-272.75,-272.75,-42,545,-936,20.4,0.7,-41.2,20.6,0.7,-40.5,5.73,2.41,-35.1,25.7
2013-01-13 00:52:00,0.0,1.9432,0.0009,406.53,0.26,-1.0,0.0,138.16,26.25,24.61,36.29,0.04,-272.75,-272.75,-43,545,-936,20.4,0.7,-41.2,20.6,0.7,-40.4,5.73,2.38,-35.0,25.7
2013-01-13 00:53:00,0.0,1.9435,0.0009,406.53,0.27,-1.0,0.0,138.16,26.25,24.61,36.29,0.04,-272.75,-272.75,-43,545,-936,20.4,0.7,-41.5,20.6,0.7,-40.8,5.73,2.39,-35.0,25.7
2013-01-13 00:54:00,0.0,1.9436,0.0010,406.54,0.26,-1.0,0.0,138.16,26.25,24.61,36.29,0.04,-272.75,-272.75,-43,545,-936,20.4,0.7,-41.5,20.6,0.7,-40.8,5.73,2.42,-35.0,25.7
2013-01-13 00:55:00,0.0,1.9434,0.0009,406.48,0.27,-1.0,0.0,138.16,26.25,24.61,36.29,0.04,-272.75,-272.75,-42,545,-936,20.4,0.7,-41.5,20.6,0.7,-40.8,5.73,2.46,-35.0,25.7
2013-01-13 00:56:00,0.0,1.9428,0.0009,406.42,0.26,-1.0,0.0,138.16,26.25,24.61,36.29,0.04,-272.75,-272.75,-42,545,-936,20.4,0.6,-41.7,20.6,0.7,-40.8,5.73,2.47,-34.9,25.7
2013-01-13 00:57:00,0.0,1.9425,0.0012,406.46,0.28,-1.0,0.0,138.16,26.25,24.61,36.29,0.04,-272.75,-272.74,-43,545,-936,20.5,0.6,-42.1,20.6,0.7,-41.1,5.73,2.44,-34.9,25.7
2013-01-13 00:58:00,0.0,1.9424,0.0010,406.42,0.28,-1.0,0.0,138.16,26.25,24.61,36.29,0.04,-272.75,-272.75,-43,545,-935,20.5,0.6,-42.1,20.6,0.7,-41.2,5.73,2.40,-34.9,25.7
2013-01-13 00:59:00,0.0,1.9421,0.0009,406.37,0.32,-1.0,0.0,138.16,26.25,24.61,36.29,0.04,-272.75,-272.75,-43,545,-936,20.4,0.6,-42.3,20.6,0.7,-41.2,5.73,2.38,-34.9,25.8
2013-01-13 01:00:00,0.0,1.9416,0.0008,406.37,0.25,-1.0,0.0,138.16,26.25,24.61,36.29,0.04,-272.75,-272.75,-42,545,-936,20.4,0.6,-42.4,20.6,0.7,-41.5,5.73,2.40,-34.9,25.8
2013-01-13 01:01:00,0.0,1.9414,0.0009,406.34,0.27,-1.0,0.0,138.16,26.25,24.61,36.29,0.04,-272.75,-272.75,-42,545,-936,20.4,0.6,-42.4,20.6,0.7,-41.5,5.73,2.44,-34.9,25.8
2013-01-13 01:02:00,0.0,1.9411,0.0011,406.35,0.28,-1.0,0.0,138.16,26.25,24.61,36.29,0.04,-272.75,-272.75,-43,545,-936,20.4,0.6,-42.4,20.6,0.6,-41.6,5.73,2.47,-34.9,25.8
2013-01-13 01:03:00,0.0,1.9413,0.0009,406.35,0.29,-1.0,0.0,138.16,26.25,24.61,36.29,0.04,-272.75,-272.75,-43,545,-936,20.4,0.6,-42.4,20.6,0.6,-41.6,5.73,2.46,-34.9,25.8
2013-01-13 01:04:00,0.0,1.9422,0.0009,406.39,0.28,-1.0,0.0,138.16,26.25,24.61,36.29,0.04,-272.75,-272.75,-43,545,-936,20.4,0.6,-42.4,20.6,0.6,-41.6,5.73,2.43,-34.9,25.8
2013-01-13 01:05:00,0.0,1.9418,0.0010,406.32,0.27,-1.0,0.0,138.16,26.25,24.61,36.29,0.04,-272.75,-272.75,-42,545,-935,20.4,0.6,-42.4,20.6,0.7,-41.5,5.73,2.39,-34.9,25.7
2013-01-13 01:06:00,0.0,1.9415,0.0009,406.48,0.32,-1.0,0.0,138.16,26.25,24.61,36.29,0.04,-272.75,-272.75,-42,545,-936,20.5,0.6,-42.2,20.6,0.7,-41.3,5.73,2.38,-34.9,25.7
2013-01-13 01:07:00,0.0,1.9412,0.0009,406.29,0.34,-1.0,0.0,138.16,26.25,24.61,36.29,0.04,-272.75,-272.75,-43,545,-936,20.5,0.6,-42.1,20.6,0.7,-41.1,5.73,2.41,-34.8,25.8
2013-01-13 01:08:00,0.0,1.9415,0.0010,406.33,0.27,-1.0,0.0,138.16,26.25,24.61,36.29,0.04,-272.75,-272.75,-43,545,-936,20.4,0.6,-41.9,20.6,0.7,-41.1,5.73,2.45,-34.9,25.8
2013-01-13 01:09:00,0.0,1.9412,0.0007,406.41,0.27,-1.0,0.0,138.16,26.25,24.61,36.29,0.04,-272.75,-272.75,-43,545,-936,20.4,0.6,-41.9,20.6,0.7,-41.1,5.73,2.47,-34.8,25.8
2013-01-13 01:10:00,0.0,1.9413,0.0010,406.40,0.27,-1.0,0.0,138.16,26.25,24.61,36.29,0.04,-272.75,-272.75,-42,545,-936,20.5,0.6,-41.8,20.6,0.7,-40.9,5.73,2.45,-34.9,25.7
2013-01-13 01:11:00,0.0,1.9414,0.0009,406.37,0.30,-1.0,0.0,138.16,26.25,24.61,36.29,0.04,-272.75,-272.75,-42,545,-936,20.5,0.7,-41.5,20.6,0.7,-40.7,5.73,2.42,-34.9,25.7
2013-01-13 01:12:00,0.0,1.9417,0.0009,406.35,0.29,-1.0,0.0,138.16,26.25,24.61,36.29,0.04,-272.75,-272.75,-43,545,-936,20.4,0.7,-41.6,20.6,0.7,-40.8,5.73,2.38,-34.8,25.7
2013-01-13 01:13:00,0.0,1.9420,0.0008,406.37,0.33,-1.0,0.0,138.16,26.25,24.61,36.29,0.04,-272.75,-272.75,-43,545,-936,20.4,0.7,-41.5,20.6,0.7,-40.8,5.73,2.39,-34.9,25.8
2013-01-13 01:14:00,0.0,1.9426,0.0007,406.43,0.28,-1.0,0.0,138.16,26.25,24.61,36.29,0.04,-272.75,-272.75,-43,545,-937,20.5,0.7,-41.6,20.6,0.7,-40.8,5.73,2.42,-34.8,25.7
2013-01-13 01:15:00,0.0,1.9422,0.0008,406.36,0.25,-1.0,0.0,138.16,26.25,24.61,36.29,0.04,-272.75,-272.75,-42,545,-936,20.4,0.7,-41.6,20.6,0.7,-40.8,5.73,2.46,-34.9,25.7
2013-01-13 01:16:00,0.0,1.9424,0.0008,406.31,0.27,-1.0,0.0,138.16,26.25,24.61,36.29,0.04,-272.75,-272.75,-43,545,-936,20.4,0.7,-41.5,20.6,0.7,-40.9,5.73,2.47,-34.9,25.7
2013-01-13 01:17:00,0.0,1.9424,0.0009,406.31,0.29,-1.0,0.0,138.16,26.25,24.61,36.29,0.04,-272.75,-272.75,-43,545,-936,20.5,0.6,-41.6,20.6,0.7,-40.8,5.73,2.45,-34.9,25.7
2013-01-13 01:18:00,0.0,1.9426,0.0010,406.39,0.29,-1.0,0.0,138.16,26.25,24.61,36.29,0.04,-272.75,-272.75,-43,545,-936,20.5,0.7,-41.6,20.6,0.7,-40.7,5.73,2.41,-34.9,25.7
2013-01-13 01:19:00,0.0,1.9437,0.0009,406.47,0.29,-1.0,0.0,138.16,26.25,24.61,36.29,0.04,-272.75,-272.75,-43,545,-936,20.4,0.6,-41.7,20.6,0.7,-40.8,5.73,2.38,-34.9,25.7
2013-01-13 01:20:00,0.0,1.9428,0.0010,406.34,0.27,-1.0,0.0,138.16,26.25,24.61,36.30,0.04,-272.75,-272.75,-42,545,-936,20.4,0.7,-41.6,20.6,0.7,-40.8,5.73,2.39,-34.9,25.7
2013-01-13 01:21:00,0.0,1.9433,0.0010,406.39,0.30,-1.0,0.0,138.16,26.25,24.61,36.29,0.04,-272.75,-272.75,-43,545,-936,20.4,0.7,-41.6,20.6,0.7,-40.8,5.73,2.43,-34.9,25.7
2013-01-13 01:22:00,0.0,1.9427,0.0010,406.38,0.32,-1.0,0.0,138.16,26.25,24.61,36.29,0.04,-272.75,-272.75,-43,545,-936,20.5,0.7,-41.6,20.6,0.7,-40.7,5.73,2.47,-34.9,25.7
2013-01-13 01:23:00,0.0,1.9425,0.0009,406.43,0.27,-1.0,0.0,138.16,26.25,24.61,36.29,0.04,-272.75,-272.75,-43,545,-936,20.5,0.7,-41.6,20.6,0.7,-40.8,5.73,2.47,-34.9,25.8
2013-01-13 01:24:00,0.0,1.9433,0.0010,406.41,0.30,-1.0,0.0,138.16,26.25,24.61,36.29,0.04,-272.75,-272.75,-42,545,-936,20.5,0.7,-41.6,20.6,0.7,-40.8,5.73,2.43,-34.9,25.7
2013-01-13 01:25:00,0.0,1.9436,0.0008,406.63,0.28,-1.0,0.0,138.16,26.25,24.61,36.28,0.04,-272.75,-272.75,-42,545,-936,20.4,0.7,-41.5,20.6,0.7,-40.7,5.73,2.40,-34.9,25.8
2013-01-13 01:26:00,0.0,1.9440,0.0009,406.59,0.31,-1.0,0.0,138.16,26.25,24.61,36.29,0.04,-272.75,-272.75,-43,545,-936,20.4,0.6,-41.7,20.6,0.7,-40.8,5.73,2.38,-34.9,25.7
2013-01-13 01:27:00,0.0,1.9439,0.0008,406.51,0.32,-1.0,0.0,138.16,26.25,24.61,36.29,0.04,-272.75,-272.75,-43,545,-936,20.4,0.6,-41.9,20.6,0.7,-41.0,5.73,2.41,-34.9,25.8
2013-01-13 01:28:00,0.0,1.9422,0.0010,406.30,0.34,-1.0,0.0,138.16,26.25,24.61,36.30,0.04,-272.75,-272.75,-43,545,-936,20.4,0.6,-42.0,20.6,0.7,-41.2,5.73,2.45,-34.9,25.8
2013-01-13 01:29:00,0.0,1.9420,0.0009,406.37,0.28,-1.0,0.0,138.16,26.25,24.61,36.29,0.04,-272.75,-272.75,-42,545,-936,20.4,0.6,-42.1,20.6,0.7,-41.1,5.73,2.47,-34.9,25.8
2013-01-13 01:30:00,0.0,1.9429,0.0009,406.43,0.29,-1.0,0.0,138.16,26.25,24.61,36.29,0.04,-272.75,-272.75,-42,545,-936,20.5,0.6,-42.1,20.6,0.7,-41.2,5.73,2.46,-34.9,25.8
2013-01-13 01:31:00,0.0,1.9427,0.0009,406.42,0.27,-1.0,0.0,138.16,26.25,24.61,36.29,0.04,-272.75,-272.75,-43,545,-936,20.5,0.6,-42.1,20.6,0.7,-41.2,5.73,2.42,-34.9,25.8
2013-01-13 01:32:00,0.0,1.9426,0.0011,406.40,0.31,-1.0,0.0,138.16,26.25,24.61,36.29,0.04,-272.75,-272.75,-43,545,-936,20.5,0.6,-42.0,20.6,0.7,-41.2,5.73,2.39,-34.9,25.8
2013-01-13 01:33:00,0.0,1.9425,0.0009,406.52,0.27,-1.0,0.0,138.16,26.25,24.61,36.29,0.04,-272.75,-272.75,-43,545,-937,20.5,0.6,-42.1,20.6,0.7,-41.2,5.73,2.39,-34.9,25.8
2013-01-13 01:34:00,0.0,1.9421,0.0008,406.43,0.34,-1.0,0.0,138.16,26.25,24.61,36.29,0.04,-272.75,-272.75,-42,545,-936,20.5,0.6,-42.0,20.6,0.7,-41.1,5.73,2.42,-34.9,25.8
2013-01-13 01:35:00,0.0,1.9422,0.0011,406.34,0.25,-1.0,0.0,138.16,26.25,24.61,36.29,0.04,-272.75,-272.75,-42,545,-936,20.4,0.6,-42.4,20.6,0.7,-41.2,5.73,2.47,-34.9,25.8
2013-01-13 01:36:00,0.0,1.9424,0.0010,406.42,0.31,-1.0,0.0,138.16,26.25,24.61,36.29,0.04,-272.75,-272.75,-43,545,-936,20.4,0.6,-42.2,20.6,0.7,-41.2,5.73,2.47,-34.9,25.8
2013-01-13 01:37:00,0.0,1.9417,0.0009,406.37,0.32,-1.0,0.0,138.16,26.25,24.61,36.29,0.04,-272.75,-272.75,-43,545,-936,20.5,0.6,-42.0,20.6,0.7,-41.2,5.73,2.42,-35.0,25.8
2013-01-13 01:38:00,0.0,1.9417,0.0009,406.37,0.27,-1.0,0.0,138.16,26.25,24.61,36.29,0.04,-272.75,-272.75,-42,545,-936,20.5,0.6,-42.0,20.6,0.7,-41.2,5.73,2.38,-35.0,25.8
2013-01-13 01:39:00,0.0,1.9413,0.0010,406.34,0.25,-1.0,0.0,138.16,26.25,24.61,36.29,0.04,-272.75,-272.75,-42,545,-936,20.5,0.6,-42.1,20.6,0.7,-41.2,5.73,2.38,-35.0,25.8
2013-01-13 01:40:00,0.0,1.9414,0.0008,406.35,0.25,-1.0,0.0,138.16,26.25,24.61,36.29,0.04,-272.75,-272.75,-43,545,-936,20.4,0.6,-42.0,20.6,0.7,-41.2,5.73,2.43,-35.0,25.8
2013-01-13 01:41:00,0.0,1.9417,0.0009,406.37,0.28,-1.0,0.0,138.16,26.25,24.61,36.29,0.04,-272.74,-272.75,-43,545,-936,20.4,0.6,-41.9,20.6,0.7,-41.2,5.73,2.47,-35.0,25.8
2013-01-13 01:42:00,0.0,1.9418,0.0011,406.51,0.31,-1.0,0.0,138.16,26.25,24.61,36.29,0.25,-271.07,-272.72,-43,545,-936,20.4,0.6,-42.0,20.6,0.7,-41.1,5.42,2.52,-38.5,25.7
2013-01-13 01:43:00,0.0,1.9417,0.0010,406.46,0.30,-1.0,0.0,138.16,26.25,24.61,36.29,0.04,-272.75,-272.75,-42,545,-936,20.4,0.6,-41.9,20.6,0.7,-41.0,5.73,2.42,-35.0,25.8
2013-01-13 01:44:00,0.0,1.9422,0.0010,406.44,0.23,-1.0,0.0,138.16,26.25,24.61,36.28,0.04,-272.74,-272.75,-43,545,-936,20.4,0.6,-41.8,20.6,0.7,-40.8,5.73,2.38,-35.0,25.8
2013-01-13 01:45:00,0.0,1.9420,0.0010,406.42,0.29,-1.0,0.0,138.16,26.25,24.61,36.29,0.04,-272.75,-272.75,-43,545,-936,20.4,0.7,-41.5,20.6,0.7,-40.8,5.73,2.38,-35.0,25.8
2013-01-13 01:46:00,0.0,1.9424,0.0010,406.49,0.28,-1.0,0.0,138.16,26.25,24.61,36.29,0.04,-272.75,-272.75,-43,545,-936,20.4,0.6,-41.6,20.6,0.7,-40.8,5.73,2.42,-35.0,25.8
2013-01-13 01:47:00,0.0,1.9421,0.0012,406.46,0.32,-1.0,0.0,138.16,26.25,24.61,36.29,0.04,-272.75,-272.75,-42,545,-936,20.5,0.7,-41.5,20.6,0.7,-40.8,5.73,2.46,-35.0,25.8
2013-01-13 01:48:00,0.0,1.9423,0.0011,406.46,0.32,-1.0,0.0,138.16,26.25,24.61,36.29,0.04,-272.75,-272.75,-42,545,-936,20.5,0.7,-41.5,20.6,0.7,-40.8,5.73,2.47,-35.0,25.8
2013-01-13 01:49:00,0.0,1.9436,0.0010,406.61,0.40,-1.0,0.0,138.16,26.25,24.61,36.29,0.04,-272.75,-272.75,-43,545,-936,20.4,0.7,-41.6,20.6,0.7,-40.8,5.73,2.43,-35.0,25.8
2013-01-13 01:50:00,0.0,1.9441,0.0011,406.78,0.33,-1.0,0.0,138.16,26.25,24.61,36.29,0.04,-272.75,-272.75,-43,545,-937,20.4,0.7,-41.6,20.6,0.7,-40.8,5.73,2.40,-35.0,25.8
2013-01-13 01:51:00,0.0,1.9452,0.0011,406.90,0.30,-1.0,0.0,138.16,26.25,24.61,36.29,0.04,-272.75,-272.75,-43,545,-936,20.4,0.7,-41.6,20.6,0.7,-40.7,5.73,2.38,-35.0,25.8
2013-01-13 01:52:00,0.0,1.9448,0.0011,406.84,0.30,-1.0,0.0,138.16,26.25,24.61,36.29,0.04,-272.75,-272.75,-42,545,-936,20.4,0.7,-41.5,20.6,0.7,-40.8,5.73,2.41,-35.1,25.8
2013-01-13 01:53:00,0.0,1.9441,0.0009,406.85,0.25,-1.0,0.0,138.16,26.25,24.61,36.29,0.04,-272.75,-272.75,-42,545,-936,20.4,0.7,-41.6,20.6,0.7,-40.8,5.73,2.45,-35.1,25.8
2013-01-13 01:54:00,0.0,1.9436,0.0009,406.74,0.26,-1.0,0.0,138.16,26.25,24.61,36.29,0.04,-272.75,-272.75,-43,545,-936,20.5,0.7,-41.5,20.6,0.7,-40.8,5.73,2.47,-35.1,25.8
2013-01-13 01:55:00,0.0,1.9436,0.0010,406.62,0.27,-1.0,0.0,138.16,26.25,24.61,36.29,0.04,-272.75,-272.75,-43,545,-936,20.5,0.7,-41.6,20.6,0.7,-40.8,5.73,2.45,-35.1,25.8
2013-01-13 01:56:00,0.0,1.9437,0.0009,406.55,0.24,-1.0,0.0,138.16,26.25,24.61,36.29,0.04,-272.75,-272.75,-43,545,-936,20.5,0.7,-41.5,20.6,0.7,-40.8,5.73,2.41,-35.1,25.8
2013-01-13 01:57:00,0.0,1.9436,0.0010,406.59,0.23,-1.0,0.0,138.16,26.25,24.61,36.29,0.04,-272.75,-272.74,-42,545,-936,20.5,0.7,-41.6,20.6,0.7,-40.8,5.73,2.38,-35.1,25.8
2013-01-13 01:58:00,0.0,1.9440,0.0010,406.86,0.28,-1.0,0.0,138.16,26.25,24.61,36.29,0.04,-272.75,-272.75,-42,545,-936,20.5,0.7,-41.6,20.6,0.7,-40.8,5.73,2.39,-35.1,25.8
2013-01-13 01:59:00,0.0,1.9441,0.0009,406.81,0.27,-1.0,0.0,138.16,26.25,24.61,36.29,0.04,-272.75,-272.75,-43,545,-936,20.4,0.7,-41.6,20.6,0.7,-40.8,5.73,2.43,-35.1,25.8
2013-01-13 02:00:00,0.0,1.9439,0.0007,406.69,0.28,-1.0,0.0,138.16,26.25,24.61,36.29,0.04,-272.75,-272.75,-43,545,-936,20.4,0.6,-41.7,20.6,0.7,-40.8,5.73,2.47,-35.1,25.8
2013-01-13 02:01:00,0.0,1.9440,0.0009,406.81,0.30,-1.0,0.0,138.16,26.25,24.61,36.28,0.04,-272.75,-272.75,-42,545,-937,20.4,0.6,-41.8,20.6,0.7,-41.1,5.73,2.47,-35.1,25.7
2013-01-13 02:02:00,0.0,1.9438,0.0008,406.68,0.24,-1.0,0.0,138.16,26.25,24.61,36.29,0.04,-272.75,-272.75,-42,545,-936,20.4,0.6,-42.0,20.6,0.7,-41.1,5.73,2.44,-35.1,25.8
2013-01-13 02:03:00,0.0,1.9442,0.0010,406.76,0.26,-1.0,0.0,138.16,26.25,24.61,36.29,0.04,-272.75,-272.75,-43,545,-936,20.5,0.6,-42.0,20.6,0.7,-41.2,5.73,2.39,-35.1,25.8
2013-01-13 02:04:00,0.0,1.9435,0.0008,406.51,0.27,-1.0,0.0,138.16,26.25,24.61,36.29,0.04,-272.75,-272.75,-43,545,-936,20.5,0.6,-42.0,20.6,0.7,-41.1,5.73,2.38,-35.1,25.7
2013-01-13 02:05:00,0.0,1.9436,0.0011,406.52,0.28,-1.0,0.0,138.16,26.25,24.61,36.29,0.04,-272.75,-272.75,-43,545,-936,20.5,0.6,-42.1,20.6,0.7,-41.2,5.73,2.40,-35.1,25.8
2013-01-13 02:06:00,0.0,1.9435,0.0008,406.46,0.31,-1.0,0.0,138.16,26.25,24.61,36.29,0.04,-272.75,-272.75,-42,545,-936,20.4,0.6,-41.9,20.6,0.7,-41.2,5.73,2.45,-35.2,25.8
2013-01-13 02:07:00,0.0,1.9437,0.0011,406.59,0.31,-1.0,0.0,138.16,26.25,24.61,36.29,0.04,-272.75,-272.75,-42,545,-937,20.4,0.6,-42.2,20.6,0.7,-41.3,5.73,2.47,-35.1,25.8
2013-01-13 02:08:00,0.0,1.9440,0.0009,406.57,0.26,-1.0,0.0,138.16,26.25,24.61,36.29,0.04,-272.75,-272.75,-43,545,-936,20.4,0.6,-42.4,20.6,0.7,-41.5,5.73,2.46,-35.2,25.8
2013-01-13 02:09:00,0.0,1.9438,0.0008,406.61,0.26,-1.0,0.0,138.16,26.25,24.61,36.29,0.04,-272.75,-272.75,-43,545,-936,20.4,0.6,-42.4,20.6,0.6,-41.6,5.73,2.42,-35.2,25.8
2013-01-13 02:10:00,0.0,1.9438,0.0009,406.62,0.24,-1.0,0.0,138.16,26.25,24.61,36.29,0.04,-272.75,-272.75,-43,545,-936,20.4,0.6,-42.5,20.6,0.6,-41.5,5.73,2.39,-35.2,25.8
2013-01-13 02:11:00,0.0,1.9448,0.0010,406.73,0.23,-1.0,0.0,138.16,26.24,24.61,36.29,0.04,-272.75,-272.75,-42,545,-936,20.4,0.6,-42.4,20.6,0.6,-41.5,5.73,2.39,-35.2,25.8
2013-01-13 02:12:00,0.0,1.9456,0.0010,406.83,0.30,-1.0,0.0,138.16,26.24,24.61,36.29,0.04,-272.75,-272.75,-42,545,-936,20.4,0.6,-42.4,20.6,0.6,-41.6,5.73,2.42,-35.2,25.8
2013-01-13 02:13:00,0.0,1.9459,0.0012,406.98,0.26,-1.0,0.0,138.16,26.25,24.61,36.29,0.04,-272.75,-272.75,-43,545,-937,20.4,0.6,-42.4,20.6,0.6,-41.6,5.73,2.46,-35.2,25.8
2013-01-13 02:14:00,0.0,1.9477,0.0010,407.07,0.27,-1.0,0.0,138.16,26.25,24.61,36.29,0.04,-272.75,-272.75,-43,545,-936,20.5,0.6,-42.4,20.6,0.7,-41.5,5.73,2.47,-35.2,25.7
2013-01-13 02:15:00,0.0,1.9479,0.0009,407.06,0.29,-1.0,0.0,138.16,26.24,24.61,36.29,0.04,-272.75,-272.75,-42,545,-936,20.4,0.6,-42.4,20.6,0.6,-41.6,5.73,2.45,-35.2,25.8
2013-01-13 02:16:00,0.0,1.9479,0.0009,407.13,0.30,-1.0,0.0,138.16,26.24,24.61,36.29,0.04,-272.75,-272.75,-42,545,-936,20.4,0.6,-42.5,20.6,0.6,-41.5,5.73,2.41,-35.2,25.8
2013-01-13 02:17:00,0.0,1.9477,0.0012,407.17,0.29,-1.0,0.0,138.16,26.25,24.62,36.28,0.04,-272.75,-272.75,-42,545,-936,20.4,0.6,-42.5,20.6,0.7,-41.5,5.73,2.38,-35.2,25.8
2013-01-13 02:18:00,0.0,1.9507,0.0012,406.85,0.30,-1.0,0.0,138.16,26.25,24.61,36.30,0.04,-272.75,-272.74,-43,545,-936,20.4,0.6,-42.4,20.6,0.6,-41.5,5.73,2.40,-35.2,25.8